Temp
10 10 10 10 10 10 9 9 9 9 9 9 9 9 9 9 9 9 9 9 9 9 9 9 9 9 9 9 9 9 9 9 9 9 9 8 8 8 8 8 8 8 7 7 7 7 7 7 7 6 6 6 6 6 6 6 6 6 6 6 6 6 6 6 6 6 6 6 6
10 10 10 10 10 9 9 9 9 9 9 9 9 9 9 9 9 9 9 9 9 9 9 9 9 9 9 9 9 9 9 9 9 9 9 8 8 8 8 8 8 8 7 7 7 7 7 7 7 7 6 6 6 6 6 6 6 6 6 6 6 6 6 6 6 6 6 6 6
10 10 10 9 9 9 9 9 9 9 9 9 9 9 9 9 9 9 9 9 9 9 9 9 9 9 9 9 9 9 9 9 9 9 9 9 8 8 8 8 8 7 7 7 7 7 7 7 7 7 7 6 6 6 6 6 6 6 6 6 6 6 6 6 6 6 6 6 6
10 10 9 9 9 9 9 9 9 9 9 9 9 9 9 9 9 9 9 9 9 9 9 9 9 9 9 9 9 9 9 9 9 9 9 9 9 9 8 8 8 7 7 7 7 7 7 7 7 7 7 6 6 6 6 6 6 6 6 6 6 6 6 6 6 6 6 6 6
10 9 9 9 9 9 9 9 9 9 9 9 9 9 9 9 9 9 9 9 9 9 9 9 9 9 9 9 9 9 9 9 9 9 9 9 9 9 9 8 8 8 7 7 7 7 7 6 6 6 6 6 6 6 6 6 6 6 6 6 6 6 6 6 6 6 6 6 6
10 10 9 9 9 9 9 9 9 9 9 9 9 9 9 9 8 8 8 8 8 9 9 9 9 9 8 8 9 9 9 9 9 9 9 8 9 9 8 8 8 8 7 7 7 7 6 6 6 6 6 6 6 6 6 6 6 6 6 6 6 6 6 6 6 6 6 6 6
9 9 9 9 9 9 9 9 9 9 9 9 9 9 9 8 8 8 8 8 8 8 8 8 8 8 8 8 8 8 8 8 8 8 8 8 8 8 8 8 8 7 7 7 7 6 6 6 6 6 6 6 6 6 6 6 6 6 6 6 6 6 6 6 6 6 6 6 6
9 9 9 9 9 9 9 9 9 9 9 9 9 9 8 8 8 8 8 8 8 7 7 7 7 7 7 7 7 7 7 7 7 7 7 7 7 7 7 7 7 7 7 7 6 6 6 6 6 6 6 6 6 6 6 6 6 6 6 6 6 6 6 6 6 6 6 5 5
9 9 9 9 9 9 9 9 9 9 9 9 9 8 8 8 8 8 7 7 7 7 7 7 7 7 7 7 7 6 6 6 6 6 6 6 6 6 6 6 6 6 6 6 6 6 6 6 6 6 6 6 6 6 6 6 6 5 5 6 6 6 6 6 5 5 5 5 5
8 9 9 9 9 9 9 9 9 9 9 8 8 8 8 8 8 7 7 7 7 7 7 6 6 6 6 6 6 6 6 6 6 6 6 6 6 6 6 6 6 6 6 6 6 6 6 6 6 6 6 6 6 6 5 5 5 5 5 5 5 5 5 5 5 5 5 5 5
8 8 8 8 8 9 9 9 9 8 8 8 8 8 8 7 7 7 7 6 6 6 6 6 6 6 6 6 6 6 6 5 5 5 5 5 5 5 5 5 5 5 5 5 5 5 5 5 5 5 5 5 5 5 5 5 5 5 5 5 5 5 5 5 5 5 5 5 4
8 8 8 8 8 8 8 8 8 8 8 7 7 7 7 7 7 6 6 6 6 6 6 6 6 5 5 5 5 5 5 5 5 5 5 5 5 5 5 5 5 5 5 5 5 5 5 5 5 5 5 5 5 5 5 5 5 4 4 4 4 4 4 4 4 4 4 4 4
8 8 8 8 7 7 7 7 7 7 7 7 7 7 6 6 6 6 6 6 6 6 6 5 5 5 5 5 5 5 5 5 5 5 5 5 5 5 5 4 4 4 4 4 4 4 4 4 4 4 4 4 4 4 4 4 4 4 4 4 4 3 3 3 3 3 3 3 3
7 7 7 7 7 7 6 6 6 6 6 6 6 6 6 6 6 6 6 6 5 5 5 5 5 5 5 5 5 5 5 5 5 5 5 5 5 5 4 4 4 4 4 4 4 4 4 3 3 3 3 3 3 3 3 3 3 3 3 3 3 3 3 3 3 3 2 2 2
7 7 7 7 6 6 6 6 6 6 6 6 6 6 6 6 6 6 5 5 5 5 5 5 5 5 5 5 4 4 4 4 4 4 4 5 4 4 4 4 4 4 4 3 3 3 3 3 3 3 3 3 3 3 3 3 3 3 2 2 2 2 2 2 2 2 2 2 2
7 7 7 6 6 6 6 6 6 6 6 6 6 5 5 5 5 5 5 5 5 5 5 4 4 4 4 4 4 4 4 4 4 4 4 4 4 4 4 4 4 3 3 3 3 3 3 2 2 2 2 2 2 2 2 2 2 2 2 2 2 2 2 2 2 1 1 1 1
7 7 6 6 6 6 5 5 5 5 5 5 5 5 5 5 5 5 4 4 4 4 4 4 4 4 4 4 4 4 4 4 4 4 4 4 4 4 3 3 3 3 3 3 2 2 2 2 2 2 2 1 1 1 1 1 1 1 1 1 1 1 1 1 1 1 1 1 1
6 6 6 6 6 5 5 5 5 5 4 4 4 4 4 4 4 4 4 4 4 4 4 4 4 4 3 3 3 3 3 3 3 3 3 3 3 3 3 3 3 2 2 2 2 2 2 2 1 1 1 1 1 1 1 1 1 1 1 1 1 1 1 1 1 1 1 1 0
6 6 6 5 5 5 5 4 4 4 4 4 4 4 4 4 4 4 4 3 3 3 3 3 3 3 3 3 3 3 3 3 3 3 3 3 3 3 3 2 2 2 2 2 2 2 1 1 1 1 1 1 1 1 1 1 1 1 1 1 1 1 1 1 1 0 0 0 0
6 5 5 5 5 4 4 4 4 4 4 4 4 4 4 4 3 3 3 3 3 3 3 3 3 3 3 3 3 3 3 3 3 3 3 2 2 2 2 2 2 2 2 2 1 1 1 1 1 1 1 1 1 1 1 0 0 0 0 0 0 0 0 0 0 0 0 0 0
5 5 5 4 4 4 4 4 4 4 4 4 3 3 3 3 3 3 3 3 3 3 3 3 3 3 3 3 3 2 2 2 2 2 2 2 2 2 2 2 2 2 1 1 1 1 1 1 1 0 0 0 0 0 0 0 0 0 0 0 0 0 0 0 0 0 0 0 0
5 4 4 4 4 3 3 3 3 3 3 3 3 3 3 3 3 3 3 3 3 3 3 3 3 3 2 2 2 2 2 2 2 2 2 2 2 2 2 2 2 1 1 1 1 1 1 1 0 0 0 0 0 0 -0 -0 -0 -0 0 0 0 0 1 1 1 1 1 1 1
4 4 4 3 3 3 3 3 3 3 3 3 3 3 3 3 3 3 3 2 2 2 2 2 2 2 2 2 2 2 2 2 2 2 2 2 2 2 2 1 1 1 1 1 1 1 1 0 0 0 0 0 0 0 -0 -0 -0 -0 -0 0 0 0 0 1 1 1 1 1 1
4 3 3 3 3 3 3 3 3 3 3 3 3 3 3 3 3 2 2 2 2 2 2 2 2 2 2 1 1 1 1 1 2 2 2 2 2 2 1 1 1 1 1 1 1 1 0 0 0 0 0 0 0 0 0 0 0 0 0 0 0 0 0 1 1 1 1 1 1
3 3 3 3 3 3 3 3 3 3 3 3 3 2 2 2 2 2 2 2 2 2 2 2 1 1 1 1 1 1 1 1 1 1 1 1 1 1 1 1 1 1 1 1 1 0 0 0 0 0 0 1 1 1 1 1 1 1 1 1 1 1 1 1 1 1 1 1 1
3 3 3 3 3 3 3 3 3 3 3 2 2 2 2 2 2 2 2 2 2 2 1 1 1 1 1 1 1 1 1 1 1 1 1 1 1 1 1 1 1 1 1 1 0 0 0 1 1 1 1 1 1 1 1 1 1 1 1 1 1 1 1 1 1 1 1 2 2
2 2 2 2 2 3 3 3 3 3 2 2 2 2 2 2 2 2 2 2 2 1 1 1 1 1 1 1 1 1 1 1 1 1 1 1 1 1 1 1 1 1 1 0 0 0 1 1 1 1 1 1 1 1 1 1 1 1 1 1 1 1 1 1 1 1 2 2 2
2 2 2 2 2 3 3 3 3 3 2 2 2 2 2 2 2 2 2 1 1 1 1 1 1 1 1 1 1 1 1 1 1 1 1 1 1 1 1 1 1 1 1 0 0 1 1 1 1 1 1 1 1 1 1 1 1 1 1 1 1 1 1 1 2 2 2 2 2
2 2 2 2 2 3 3 3 3 2 2 2 2 2 2 2 2 1 1 1 1 1 1 1 1 1 1 1 1 1 1 1 1 1 1 1 1 1 1 1 1 1 1 0 0 0 0 0 0 1 1 1 1 1 1 1 1 1 1 1 1 1 1 2 2 2 2 2 2
1 2 2 2 2 2 2 2 2 2 2 2 2 2 2 2 1 1 1 1 1 1 1 1 1 1 1 1 1 1 1 1 1 1 1 1 1 1 1 1 1 1 0 0 0 0 0 0 0 1 1 1 1 1 1 1 1 1 1 1 1 1 2 2 2 2 2 2 2
1 2 2 2 2 2 2 2 2 2 2 2 2 2 2 1 1 1 1 1 1 1 1 1 1 1 1 1 1 1 1 1 1 1 1 1 1 1 1 1 0 0 0 0 0 0 0 0 0 1 1 1 1 1 1 1 1 1 1 1 1 1 1 2 2 2 2 2 2
1 1 2 2 2 2 2 2 2 2 2 2 2 2 1 1 1 1 1 1 1 1 1 1 1 1 1 1 1 1 1 1 1 1 1 1 1 0 0 0 0 0 0 -0 0 0 0 0 1 1 1 1 1 1 1 1 1 1 1 1 1 1 1 1 2 2 2 2 2
1 1 1 2 2 2 2 2 2 2 2 2 1 1 1 1 1 1 1 1 1 1 1 1 1 1 1 1 1 1 1 1 1 1 1 0 0 0 0 0 0 0 -0 -0 0 0 0 0 1 1 1 1 1 1 1 1 1 1 1 1 1 1 1 1 1 1 1 2 2
1 1 1 1 2 2 2 2 2 2 1 1 1 1 1 1 1 1 1 1 1 1 1 1 1 1 1 1 1 1 1 1 1 0 0 0 0 0 0 0 -0 -0 -0 0 0 0 0 0 1 1 1 1 1 1 1 1 1 1 1 1 1 1 1 1 1 2 2 2 2
0 1 1 2 2 2 2 2 1 1 1 1 1 1 1 1 1 1 1 1 1 1 1 1 1 1 1 1 1 1 1 0 0 0 0 0 -0 -0 -0 -0 -0 -0 0 0 0 0 0 1 1 1 1 1 1 1 0 0 1 1 1 1 1 1 1 1 1 2 2 2 2
1 1 1 2 2 2 1 1 1 1 1 1 1 1 1 1 1 1 1 1 1 1 1 1 1 1 1 1 1 0 0 0 0 0 -0 -0 -0 -0 -0 -0 -0 -0 0 0 0 0 0 0 1 1 1 1 1 0 0 0 1 1 1 1 1 1 2 2 2 2 2 2 2
1 1 1 1 1 1 1 1 1 1 1 1 1 1 1 1 1 1 1 1 1 1 1 1 1 1 1 0 0 0 0 -0 -0 -0 -0 -0 -0 -0 -0 -0 -0 0 0 0 0 0 0 0 1 1 1 1 0 0 1 1 1 1 1 1 1 2 2 2 2 2 2 2 2
1 1 1 1 1 1 1 1 1 1 1 1 1 1 1 1 1 1 1 1 1 1 1 1 1 0 0 0 0 0 -0 -0 -0 -0 -0 -0 -0 -0 -0 -0 -0 -0 -0 -0 0 0 0 0 0 1 1 1 1 1 1 1 1 1 1 1 2 2 2 2 2 2 2 2 2
1 1 1 1 1 1 1 1 1 1 1 0 0 0 0 0 1 1 1 0 1 1 0 0 0 0 0 0 -0 -0 -0 -0 -0 -0 -0 -0 -0 -0 -0 -0 -0 -0 -0 -0 0 0 0 0 1 1 1 1 1 1 1 1 1 1 1 1 1 1 1 1 2 2 2 2 3
1 1 1 1 1 1 0 0 0 0 0 0 0 0 0 0 0 0 0 0 0 0 0 0 0 0 0 -0 -0 -0 -0 -0 -0 -0 -0 -0 -0 -0 -0 -0 -0 -0 -0 -0 0 0 0 1 1 1 1 1 1 1 1 1 1 1 1 1 1 1 1 2 2 2 3 3 3
1 1 1 0 0 0 0 0 0 0 0 0 0 0 0 0 0 0 0 0 0 0 0 0 0 0 0 -0 -0 -0 -0 -0 -0 -0 -0 -0 -0 -0 -0 -0 -0 -0 -0 0 0 0 1 1 1 1 1 1 1 1 1 1 1 1 1 1 1 1 2 2 2 3 3 3 3
Height
832 831 830 830 829 828 828 827 826 825 824 824 823 822 821 820 819 818 817 816 815 814 813 812 811 810 809 808 808 807 806 805 804 803 802 801 800 799 799 798 797 796 795 794 794 793 793 792 792 791 790 789 789 788 787 787 786 785 785 784 783 782 782 781 780 780 780 779 779
831 830 830 829 828 827 827 826 825 824 823 823 822 821 820 819 818 817 816 815 814 813 812 811 810 809 808 807 806 805 804 803 802 801 800 799 799 798 797 796 795 794 794 793 792 791 791 790 789 789 788 787 786 785 784 784 784 783 782 781 780 780 779 778 777 776 776 776 775
831 830 829 828 828 827 826 825 824 824 823 822 821 820 819 818 817 816 815 814 813 812 811 809 808 807 806 805 804 804 803 802 801 800 799 798 797 796 795 794 793 792 792 791 790 789 789 788 787 787 785 784 784 783 782 781 781 780 779 778 778 777 776 775 774 774 773 773 772
830 829 828 828 827 826 825 824 823 823 822 821 819 819 818 817 815 814 814 812 811 810 809 808 807 806 805 804 803 802 801 800 799 798 797 796 795 794 793 792 791 790 790 789 788 787 787 786 786 784 783 782 781 780 779 779 778 777 776 775 775 774 773 772 771 771 770 770 769
829 828 828 827 826 825 824 824 823 821 820 819 819 817 816 815 814 813 812 811 810 809 808 807 806 805 804 803 801 800 799 799 797 796 795 794 793 792 791 790 789 789 788 787 786 785 784 784 784 782 781 780 779 778 777 776 776 775 774 773 772 771 770 769 768 768 767 766 766
828 827 827 826 825 824 823 822 821 820 819 818 817 816 815 814 813 812 811 810 809 807 806 805 804 803 802 801 800 799 798 796 795 794 793 792 791 790 789 788 787 786 785 785 784 783 782 782 781 780 779 778 776 775 774 774 774 773 772 770 770 769 768 767 766 765 765 763 763
827 827 826 825 824 823 822 821 820 819 818 817 816 815 814 813 812 811 809 808 807 806 804 804 802 801 800 799 798 797 795 794 793 792 791 790 789 788 787 786 785 784 783 782 782 781 780 780 779 777 776 775 774 772 772 772 771 770 769 768 767 766 765 764 763 762 762 760 760
826 826 825 824 823 822 821 820 819 818 817 816 815 814 813 811 810 809 808 807 805 804 803 802 800 799 798 797 796 794 793 792 791 790 789 788 787 786 785 784 783 782 781 780 780 779 778 777 776 775 774 773 771 770 769 769 768 767 766 765 764 763 763 761 760 760 759 758 757
825 825 824 823 822 821 820 819 818 817 815 814 813 812 811 810 808 807 806 805 804 802 801 800 799 798 796 795 794 793 791 790 789 788 786 785 784 783 782 781 780 780 779 778 778 777 776 775 774 773 771 770 769 768 767 766 766 765 764 763 761 760 760 759 758 757 756 755 754
824 824 823 822 821 819 819 817 816 815 814 813 811 810 809 808 807 805 804 803 802 800 799 798 797 795 794 793 792 790 789 788 787 785 784 783 782 781 780 779 778 777 776 776 775 775 774 773 772 770 769 768 767 765 765 764 764 762 761 760 759 758 756 756 755 755 754 752 751
823 822 821 820 819 818 817 815 814 813 812 811 809 808 807 806 805 804 802 801 800 799 797 796 795 794 792 791 790 789 787 786 785 784 783 781 780 779 778 777 776 775 774 774 773 772 771 770 769 768 767 766 765 764 762 761 761 760 758 757 756 755 753 752 752 752 751 750 749
821 820 819 818 817 816 814 813 812 811 810 809 807 806 805 804 803 802 800 799 798 797 795 794 793 792 790 789 788 787 786 784 783 782 781 780 778 777 776 775 774 773 772 771 771 770 769 768 767 765 764 763 763 761 760 759 758 757 755 754 753 752 750 749 749 749 748 747 746
820 819 818 816 815 814 813 811 810 809 808 807 805 804 803 802 801 800 799 798 796 795 794 793 791 790 789 788 786 785 784 783 781 780 779 777 776 775 774 773 772 771 770 769 769 768 767 766 765 763 762 761 760 759 758 757 755 754 753 751 750 749 748 746 746 745 745 745 744
818 817 816 815 814 812 811 810 809 807 806 805 804 803 802 801 799 799 797 796 795 794 792 791 790 789 788 786 785 784 782 781 780 778 777 775 774 773 772 770 770 769 768 767 766 766 765 764 762 761 760 759 757 756 755 754 753 752 750 749 747 746 745 744 743 743 743 742 741
817 816 814 814 812 811 810 809 807 806 805 804 803 802 800 799 798 797 796 794 793 792 791 789 788 787 786 784 783 782 780 779 778 776 775 774 772 771 770 769 767 766 765 765 764 763 762 761 760 759 758 756 755 753 752 751 750 749 747 746 745 743 742 741 741 740 740 739 739
815 814 813 812 811 810 809 807 806 805 804 802 801 800 799 798 796 795 794 793 791 790 789 788 786 785 784 783 781 780 779 777 776 775 773 771 770 769 768 766 765 764 763 762 761 760 759 758 758 756 755 754 752 750 749 748 747 746 745 743 742 741 740 738 738 738 737 736 736
814 813 812 811 809 808 807 806 805 804 802 801 799 799 797 796 795 794 793 791 790 789 787 786 785 783 782 780 779 778 777 775 774 772 771 769 768 766 765 764 762 761 760 759 758 757 756 755 755 754 752 751 749 748 746 745 744 742 741 740 739 738 736 735 735 735 734 734 733
813 811 810 809 808 807 805 804 803 802 800 799 798 797 796 795 794 792 791 790 789 787 785 784 783 782 780 779 777 776 775 773 771 770 769 767 766 764 763 761 760 759 758 757 755 754 753 752 751 750 750 748 746 745 743 742 740 739 738 737 735 735 734 733 732 732 731 730 730
811 810 809 808 806 805 804 803 801 800 799 798 797 795 794 793 792 790 789 788 787 786 784 782 781 780 778 777 775 774 773 771 770 768 766 765 764 762 760 759 757 756 755 754 753 752 750 750 749 748 746 745 744 742 740 739 738 736 735 734 733 731 730 730 729 729 728 727 726
810 809 807 806 805 804 802 801 800 799 798 796 795 794 793 791 790 789 788 786 785 784 782 781 779 777 776 775 773 772 770 769 767 765 764 763 761 760 758 756 755 753 752 751 750 749 748 747 746 745 744 742 741 739 738 736 735 733 732 731 730 728 727 727 726 725 725 724 723
809 807 806 804 803 802 801 799 799 797 796 795 794 792 791 790 789 787 786 784 783 782 780 779 777 776 774 773 771 770 768 767 765 764 762 760 759 757 756 754 752 751 749 749 747 746 745 744 743 742 741 739 738 736 735 734 732 730 729 728 727 725 725 724 723 722 721 720 720
807 806 804 803 802 800 799 798 797 796 794 793 792 791 789 788 787 786 784 783 781 780 779 777 775 774 772 771 769 767 765 764 763 761 760 758 756 755 754 752 750 749 747 746 745 744 743 741 740 739 738 736 734 733 731 730 729 727 726 725 724 723 722 721 720 720 718 717 716
805 804 803 802 800 799 798 797 795 794 793 792 790 789 788 787 785 784 783 781 780 778 777 775 774 772 770 769 767 765 763 762 760 759 758 756 755 753 751 750 748 746 745 743 742 741 740 739 737 736 735 733 731 730 728 727 726 724 723 721 720 719 718 717 717 716 715 714 713
804 803 801 800 799 798 796 795 794 793 792 790 789 788 786 785 784 782 780 779 778 776 775 773 771 770 768 766 765 763 761 760 758 756 755 754 753 751 749 748 746 744 743 741 740 740 739 737 736 734 733 731 729 728 726 725 723 721 720 718 717 716 715 715 714 713 712 711 710
803 801 800 799 797 796 795 794 793 791 790 789 787 786 784 783 782 780 779 777 776 774 773 771 769 768 766 764 762 761 760 758 756 754 753 751 750 749 747 746 744 742 740 739 738 738 737 736 735 733 731 729 727 725 724 722 721 720 718 717 715 714 713 712 711 710 709 708 707
801 800 799 797 796 795 794 792 791 789 788 787 785 784 783 781 780 778 777 775 774 772 770 769 767 765 764 762 760 759 758 756 755 753 751 749 747 746 745 744 742 740 738 737 736 735 735 734 732 731 729 727 725 723 721 719 718 717 716 715 713 712 710 709 707 706 706 705 704
799 798 797 796 794 793 792 791 789 788 787 785 784 782 781 780 778 776 775 773 771 770 769 767 765 764 762 760 758 757 755 754 753 751 749 747 745 744 742 741 740 738 736 735 734 733 732 731 730 729 727 726 724 721 719 717 715 715 713 712 710 709 708 706 704 703 702 701 701
798 797 795 794 793 792 790 789 788 786 785 783 782 780 779 777 776 774 773 771 770 768 766 765 763 762 760 758 756 755 754 752 750 749 747 745 744 742 740 739 737 735 734 733 732 731 730 728 727 726 725 724 721 719 717 715 713 712 710 709 708 706 705 704 702 700 699 698 697
796 795 794 793 791 790 789 787 786 784 783 781 780 778 777 775 774 772 770 769 768 766 765 763 761 760 758 756 755 753 751 750 749 747 745 743 741 740 738 737 735 733 732 731 730 729 727 726 725 723 722 721 720 717 715 713 711 710 708 706 705 704 702 701 700 698 697 695 694
795 794 793 791 790 788 787 785 784 783 781 780 778 776 775 773 772 770 769 767 766 764 763 761 760 758 756 755 753 751 749 748 746 745 743 741 740 738 736 735 733 731 730 729 728 726 725 723 722 721 720 719 717 715 713 711 709 707 705 704 702 701 700 698 696 695 693 692 690
794 792 791 789 788 787 785 784 782 781 780 778 776 775 773 771 770 768 767 765 764 762 761 760 758 756 754 753 751 749 747 746 744 743 741 740 738 736 734 732 731 729 728 727 725 724 722 721 720 718 717 716 715 713 710 708 706 705 703 701 699 698 696 695 693 692 690 689 688
792 791 789 788 786 785 783 782 780 779 778 776 775 773 771 770 768 767 765 764 762 760 758 757 755 754 752 750 749 747 745 744 742 741 739 738 736 734 732 730 729 727 725 725 723 722 720 719 717 716 715 713 712 710 708 706 704 702 700 699 697 696 695 693 692 690 689 688 687
790 789 788 786 784 783 782 780 779 777 776 774 773 771 770 768 766 765 763 762 760 759 757 755 753 752 750 748 747 745 743 742 740 739 737 736 734 732 730 728 726 725 724 722 721 720 718 716 715 714 712 711 709 707 705 703 702 700 698 697 695 694 693 692 690 689 688 686 685
789 787 786 784 783 781 780 779 777 775 774 772 771 769 768 766 764 763 761 760 759 757 755 753 752 750 748 747 745 743 741 740 738 737 735 734 732 730 728 726 724 723 721 720 719 717 716 714 713 711 710 708 706 705 703 701 700 698 696 695 694 692 691 690 688 687 685 684 682
787 786 784 783 781 780 778 777 775 774 772 770 769 767 766 765 763 761 760 758 756 755 753 751 750 748 746 745 744 742 740 738 736 735 734 732 730 728 726 724 722 721 720 718 717 715 714 712 710 709 707 706 704 702 700 699 697 696 694 693 691 690 688 686 685 683 682 680 679
786 784 783 781 780 778 777 775 774 772 770 769 767 765 764 763 761 760 758 756 754 752 751 749 748 746 745 743 741 740 738 736 735 733 731 730 728 726 724 721 720 718 717 716 715 713 711 710 708 707 705 704 702 700 698 697 695 693 692 690 689 687 685 683 681 680 679 678 676
784 783 781 780 778 776 775 774 772 770 769 767 765 764 762 760 759 757 756 755 752 750 749 747 746 744 742 741 739 738 736 735 733 731 729 728 726 724 722 719 717 716 715 714 712 711 709 708 706 705 703 701 700 698 696 695 693 691 689 688 686 684 682 680 679 677 676 675 674
783 781 780 778 776 775 774 772 770 769 767 765 764 762 761 759 757 755 754 753 751 749 746 745 744 742 740 739 737 735 734 733 731 730 727 725 724 722 720 717 715 713 712 711 710 708 707 705 704 702 701 699 697 696 694 693 691 689 687 685 683 681 679 678 676 675 673 672 671
781 780 779 777 775 774 772 770 769 767 765 764 762 760 759 757 755 754 752 751 750 747 745 743 741 740 739 737 735 733 731 730 730 728 726 724 722 720 718 716 713 711 710 709 708 706 705 703 701 700 699 697 696 694 692 690 688 686 685 683 680 678 676 675 674 672 671 670 669
780 778 777 775 774 772 770 769 767 765 764 762 760 758 757 755 754 752 750 749 747 746 744 741 740 738 737 735 733 731 729 728 727 726 724 722 720 718 716 714 711 709 708 706 705 704 702 701 699 698 697 695 694 692 690 688 686 684 682 680 678 676 674 673 671 670 669 667 666
778 777 775 774 772 771 769 767 765 764 762 761 759 757 755 753 752 750 748 747 745 744 742 740 738 736 735 733 732 730 727 725 724 723 722 720 718 716 714 712 710 707 705 704 703 701 700 699 697 696 695 693 692 690 688 686 684 682 680 678 676 674 672 670 669 668 667 665 664
Wind_Speed
13 13 14 14 14 14 14 14 14 14 14 13 13 13 13 13 13 14 14 14 14 15 15 15 16 17 18 19 19 19 20 20 20 20 20 20 21 21 22 22 21 21 22 22 22 22 21 21 21 20 20 20 21 21 21 22 22 22 22 23 23 23 24 24 25 26 27 27 27
12 13 14 14 14 14 14 14 14 14 14 14 14 14 14 14 14 15 15 14 15 15 15 16 17 18 19 20 20 20 20 21 21 21 21 21 22 22 23 22 22 22 22 22 22 22 21 21 20 20 20 20 20 21 22 23 23 24 24 25 25 24 24 24 25 26 27 28 28
12 13 13 13 13 13 13 13 13 13 13 14 15 16 16 16 16 16 16 16 16 16 16 17 18 18 19 20 21 21 21 21 22 22 22 23 23 23 22 22 23 23 23 23 22 22 22 21 20 20 20 20 21 21 22 23 23 24 25 26 25 24 24 24 25 25 25 26 27
12 12 12 12 12 12 13 13 14 14 15 16 17 17 17 18 17 17 17 17 18 17 17 18 18 19 20 21 21 22 22 23 23 23 24 24 24 24 24 24 23 23 23 23 23 23 23 22 21 20 20 21 21 22 22 22 22 23 24 24 24 24 24 24 24 24 24 24 25
12 12 13 13 13 14 14 15 15 16 17 18 19 19 19 19 19 18 19 19 19 19 19 20 20 21 21 22 23 23 24 24 25 25 25 25 25 25 25 25 24 24 23 23 23 23 23 22 21 20 20 21 21 22 23 23 23 23 23 23 23 23 23 24 24 23 24 24 24
13 14 14 14 15 16 17 17 18 19 20 21 21 21 20 20 20 19 19 19 21 22 22 22 23 23 23 23 24 24 25 26 26 26 26 26 26 26 26 26 26 25 24 24 24 23 23 22 21 21 21 21 22 23 23 23 23 23 24 23 23 23 23 24 24 24 24 25 25
15 15 15 16 17 18 19 20 20 21 22 23 23 22 22 21 21 21 21 22 22 23 23 23 23 23 23 23 24 25 26 26 26 26 26 25 26 25 26 26 26 26 25 25 24 23 22 21 21 21 21 21 22 22 23 23 23 24 24 24 24 24 24 24 25 25 25 26 27
16 16 17 18 19 20 21 22 22 23 24 24 24 24 23 23 23 23 23 23 22 22 23 23 23 23 23 24 24 25 25 26 26 26 25 25 25 25 25 25 25 25 25 24 23 22 21 20 20 20 21 21 21 22 22 22 23 24 25 26 26 26 25 25 25 25 25 26 28
16 17 18 19 20 21 22 23 24 24 24 25 25 25 25 25 25 24 23 22 22 22 23 23 23 24 24 24 24 24 24 24 24 24 24 24 24 25 25 25 25 24 24 23 22 21 20 20 19 20 20 21 21 22 22 22 23 24 25 26 26 27 27 26 26 26 27 27 28
17 18 19 20 21 22 23 24 25 25 25 25 26 26 25 24 24 23 22 22 23 23 23 23 23 23 23 24 23 23 23 22 22 22 23 23 23 24 24 24 24 24 23 22 21 20 20 19 20 20 21 21 22 23 23 23 23 25 25 26 26 26 27 28 27 28 28 28 28
19 20 21 21 22 23 24 25 25 25 25 25 25 25 24 23 22 21 21 22 22 22 23 23 22 22 22 22 22 22 21 21 21 21 22 22 22 22 23 23 23 23 23 22 21 20 20 20 20 21 22 22 23 23 24 24 24 25 26 27 27 27 28 29 29 29 29 29 29
20 21 22 23 23 24 25 25 25 24 24 24 24 23 22 21 21 20 21 21 21 21 22 22 21 21 21 21 21 21 21 21 21 21 22 22 22 23 23 23 23 23 23 22 21 20 20 20 21 22 23 24 23 23 24 24 25 25 26 27 28 28 29 30 30 29 29 28 29
21 22 22 22 23 24 24 23 23 23 22 22 22 21 20 20 20 20 20 20 21 21 21 21 21 20 20 20 20 20 20 21 21 21 22 22 23 23 23 23 23 23 23 22 21 20 20 21 22 22 23 24 24 24 24 25 26 26 27 28 28 29 30 31 31 31 30 29 29
21 21 21 21 22 22 22 21 21 21 21 21 20 20 20 20 20 19 19 19 20 20 21 21 20 19 19 19 20 21 21 21 21 22 22 23 23 23 23 24 24 24 24 23 22 22 22 23 23 24 24 25 26 26 26 27 27 27 28 29 30 30 31 32 32 32 31 30 30
20 20 20 21 21 20 20 20 20 19 20 20 20 20 20 20 20 20 19 20 20 21 20 20 20 20 20 20 21 22 22 22 22 22 23 23 23 23 23 24 25 26 26 25 25 24 24 25 25 26 26 26 27 28 28 28 28 29 29 30 31 32 32 33 33 32 32 31 31
20 20 20 20 20 20 19 19 19 19 19 19 20 20 20 19 20 20 20 20 20 20 20 20 21 21 22 22 22 22 22 22 22 22 23 23 23 24 24 24 26 27 28 29 28 28 28 28 28 27 27 28 28 29 29 30 30 30 31 32 32 33 33 34 34 33 33 32 32
20 20 20 20 20 20 20 19 19 19 19 20 20 20 20 20 20 20 20 20 20 21 21 21 22 22 23 23 22 22 22 22 22 23 23 24 24 25 25 26 28 29 30 31 31 32 32 32 31 30 30 30 31 31 31 31 31 31 32 32 33 33 34 34 34 34 34 34 33
20 20 20 20 20 20 20 20 20 20 20 20 20 20 20 20 20 21 21 21 21 21 22 23 23 23 23 23 23 22 22 22 23 23 24 24 25 26 26 27 28 29 30 31 32 33 33 34 34 32 31 30 31 31 31 31 31 32 32 32 32 33 34 34 35 35 35 34 33
20 19 19 19 20 20 21 21 21 21 20 20 20 20 21 21 21 21 22 22 21 21 22 23 23 23 23 23 23 23 23 23 24 25 25 25 26 26 27 27 29 30 31 32 33 33 34 34 33 32 30 29 30 30 30 31 31 31 32 32 33 34 35 36 36 36 35 33 33
19 19 19 20 20 20 21 21 21 20 20 20 20 21 21 22 22 22 22 22 22 22 22 23 24 24 24 24 24 24 24 23 24 25 25 25 26 26 27 28 29 31 31 32 33 33 34 34 32 31 30 29 30 31 31 31 31 32 33 34 34 35 35 35 35 35 34 33 32
19 19 19 20 20 20 20 20 20 20 20 20 21 21 22 22 22 22 22 22 23 23 23 23 23 24 24 24 25 25 25 24 24 25 25 25 26 26 27 28 29 30 31 32 32 33 33 33 32 31 31 31 32 33 33 33 33 33 33 32 32 32 32 32 32 32 31 31 31
19 19 19 20 20 20 20 20 20 20 20 21 21 21 21 21 22 22 22 23 23 23 23 23 23 24 24 24 25 25 25 25 25 25 25 25 25 25 26 26 27 29 31 31 32 32 32 32 32 32 32 33 34 35 35 34 33 33 32 32 31 31 32 31 31 31 31 31 30
19 19 19 19 19 20 20 20 20 20 20 20 21 21 21 21 22 22 22 22 22 23 23 23 23 24 24 25 25 25 26 26 25 25 25 25 25 25 26 26 27 29 30 31 30 30 30 30 30 31 31 31 32 33 33 33 33 33 33 33 33 33 32 32 31 31 31 31 31
19 19 19 19 19 19 19 20 20 20 20 20 21 21 21 22 22 22 22 23 23 23 23 23 24 24 25 25 25 25 25 25 25 25 25 25 25 25 26 26 27 28 28 28 28 27 27 27 28 28 29 29 30 31 31 31 31 31 32 32 32 32 31 31 30 30 30 31 31
19 19 19 19 19 19 19 19 19 20 20 20 21 21 21 22 22 22 23 23 23 24 24 24 24 24 24 24 24 24 23 23 24 25 25 26 26 26 26 26 26 26 27 27 27 27 26 26 27 28 28 29 29 29 29 30 30 31 31 31 31 31 31 31 31 30 30 31 30
19 19 19 19 19 19 19 19 19 20 20 21 21 21 22 22 22 23 23 24 24 24 24 24 24 24 24 23 23 23 23 23 23 24 25 26 26 26 26 25 25 25 26 27 27 27 27 28 28 29 29 30 29 30 31 31 31 31 31 31 31 31 31 31 30 30 30 30 31
19 19 19 19 19 19 19 19 19 20 20 21 21 22 22 22 22 23 23 24 24 24 24 24 23 23 23 22 22 22 23 23 24 25 25 26 26 27 26 26 26 26 27 27 27 27 28 29 29 30 30 30 30 31 32 31 32 31 31 30 31 31 30 30 29 29 29 29 30
20 19 19 19 19 19 19 19 20 20 20 21 21 22 22 23 23 23 23 24 24 24 24 23 23 22 22 22 22 23 24 24 25 25 25 25 26 26 27 26 26 26 27 27 28 28 29 30 30 30 30 30 30 31 32 31 31 30 29 29 28 28 29 29 29 29 28 28 29
20 19 18 19 19 19 20 20 20 20 21 21 22 22 23 23 23 23 23 24 24 24 23 23 23 22 22 23 24 25 25 25 25 25 25 26 26 26 27 27 27 27 27 28 28 29 30 30 31 31 30 30 29 29 30 29 29 29 29 27 27 27 28 29 29 29 29 30 30
19 18 18 19 19 20 20 20 20 21 21 22 22 22 23 23 23 23 23 24 24 24 23 23 23 24 24 25 25 25 25 25 25 24 25 26 26 27 27 27 27 28 28 29 29 30 30 30 30 30 30 30 30 30 31 30 29 29 29 29 29 29 30 30 31 31 31 31 30
19 18 19 19 20 20 20 20 21 21 21 22 22 22 23 23 23 23 23 24 24 24 24 24 24 25 25 25 25 25 25 25 25 25 25 26 26 27 28 28 28 29 29 29 29 29 30 30 30 30 30 31 30 31 31 30 30 29 29 29 29 29 30 30 30 30 30 29 28
19 19 19 20 20 21 21 21 21 21 21 22 22 22 23 23 23 23 23 24 24 24 24 24 25 25 25 25 25 25 25 25 25 25 26 26 27 28 28 29 29 29 28 28 28 29 29 30 30 31 31 31 31 32 32 32 31 29 28 28 28 28 28 27 27 27 27 27 27
19 19 19 20 20 21 21 21 21 21 22 22 22 23 23 23 24 24 23 23 23 24 24 24 25 25 25 25 25 25 25 25 25 26 26 27 27 28 29 29 28 28 27 28 28 29 30 31 31 31 32 32 32 32 31 30 29 28 27 27 27 27 27 27 27 27 28 28 29
20 20 20 20 20 21 21 21 21 22 22 23 23 23 23 23 24 24 24 23 23 23 24 24 24 24 24 25 25 25 26 26 26 26 26 27 28 28 29 29 28 27 28 28 29 30 31 31 32 32 32 32 31 31 30 29 28 27 27 27 28 28 28 28 28 29 29 30 30
20 19 20 20 20 21 21 22 22 22 23 23 23 23 23 23 23 24 24 24 24 24 24 24 24 24 24 24 25 25 26 27 27 27 27 27 28 28 29 29 29 29 29 29 30 31 31 32 32 32 32 31 31 30 29 27 27 27 27 27 27 27 27 28 28 28 28 28 28
19 19 20 21 21 22 22 22 23 23 23 23 23 24 24 24 23 23 24 24 24 24 24 24 24 24 24 25 25 25 25 26 27 27 27 27 28 28 29 30 30 30 30 30 31 31 31 32 32 32 31 31 30 29 27 26 25 26 26 26 26 27 28 28 28 28 28 27 27
19 19 20 21 22 22 22 23 23 23 23 23 24 24 24 24 24 24 23 23 24 24 25 24 24 24 25 25 26 26 26 26 27 27 28 28 28 29 29 30 31 31 31 31 31 31 31 32 32 31 31 30 29 27 26 25 24 24 25 25 26 27 28 28 28 27 27 26 26
19 20 20 21 22 23 23 23 23 23 24 24 24 24 24 24 24 24 23 23 23 24 25 25 25 25 25 26 26 26 26 26 26 27 28 28 28 29 30 31 31 31 31 31 31 31 31 31 31 31 30 29 28 26 25 24 24 24 25 26 27 28 29 28 27 26 25 25 26
20 20 21 21 22 23 23 23 23 23 24 24 24 24 24 24 24 24 23 23 23 24 25 26 26 26 26 26 27 27 27 27 27 27 28 28 29 29 30 31 32 32 31 31 31 31 31 31 30 30 29 29 27 25 24 24 25 25 26 27 28 29 29 27 25 23 23 24 24
21 21 21 21 22 23 23 23 23 23 24 24 24 24 24 24 24 24 24 24 24 24 25 26 26 26 26 26 27 28 28 28 27 27 28 28 29 30 30 31 31 32 31 31 30 30 30 30 30 29 29 28 26 25 25 24 25 26 27 27 26 25 24 22 21 21 21 23 24
21 21 21 22 22 22 23 24 24 24 23 24 24 24 24 24 24 24 24 25 25 25 25 26 26 27 27 27 27 28 29 29 28 28 28 28 29 29 30 30 31 31 31 30 30 29 29 29 29 29 29 28 27 26 25 24 24 26 27 26 24 22 20 20 20 21 22 23 23
Wind_Direction
327 327 327 326 324 323 320 318 319 319 318 315 313 311 310 308 305 304 304 303 301 301 301 300 301 303 306 308 307 305 303 301 299 297 294 292 289 288 286 283 279 276 273 272 271 269 266 262 257 254 251 250 250 250 249 248 248 247 245 244 245 245 244 244 243 243 242 241 242
330 329 329 328 328 327 324 323 323 322 321 319 318 317 316 314 312 311 310 309 307 305 304 305 306 308 310 311 311 309 307 305 304 302 299 296 294 292 289 286 283 279 276 273 270 268 265 262 257 254 251 250 250 250 249 249 248 247 247 246 245 246 246 245 245 245 244 243 243
332 331 331 330 330 328 326 323 323 322 320 319 319 320 320 319 317 316 314 313 312 310 308 307 309 310 311 312 312 311 310 308 307 305 303 301 299 296 292 288 285 282 278 275 271 268 265 263 259 255 253 251 250 250 250 249 248 248 248 247 247 247 246 246 246 246 246 245 244
332 331 331 330 330 328 326 323 323 322 321 321 321 321 320 319 317 316 314 313 312 310 308 307 308 308 309 309 310 310 310 309 308 306 304 303 301 298 295 291 287 284 280 277 273 270 267 265 261 258 255 254 252 251 251 251 249 248 248 249 248 247 247 248 248 248 247 247 246
330 329 328 327 327 326 325 324 323 321 321 321 320 319 318 317 315 314 312 311 309 308 307 307 306 306 307 308 308 309 309 308 307 306 304 303 302 300 298 294 290 286 283 279 276 273 270 266 263 260 258 257 255 253 252 252 251 250 250 251 250 249 249 250 250 249 249 249 248
327 325 323 323 322 322 322 321 320 319 318 317 316 315 315 314 312 310 308 307 306 306 307 307 307 307 307 308 308 308 307 307 306 305 303 302 301 299 297 294 292 288 285 282 278 275 272 268 265 262 260 258 258 256 255 254 254 254 254 253 253 252 251 252 252 251 251 250 250
323 321 319 318 317 317 317 316 316 315 314 314 312 312 311 310 309 308 307 306 306 307 307 307 308 307 307 307 307 306 306 306 305 304 303 301 299 297 296 294 292 289 287 284 281 278 274 270 267 264 262 260 260 259 258 256 255 256 256 256 256 256 255 254 255 254 253 252 252
320 318 315 314 313 313 313 313 313 312 312 311 310 309 309 308 308 308 308 307 306 306 306 307 306 306 306 306 305 305 305 305 304 304 302 300 298 296 295 293 291 289 287 286 283 280 277 272 268 266 264 263 262 261 260 258 257 257 257 258 259 259 258 257 256 256 255 255 254
318 316 314 313 312 312 311 311 310 310 310 308 308 308 308 308 308 308 307 305 304 305 305 305 305 306 306 305 304 304 304 303 302 302 300 299 298 296 295 293 291 290 288 286 284 281 278 274 270 267 266 264 264 264 263 262 261 260 260 260 261 261 260 259 258 258 258 257 256
317 315 315 314 313 312 312 311 310 310 309 308 308 308 308 307 307 306 304 303 304 304 305 305 305 306 305 304 303 303 302 301 300 299 298 297 296 295 294 293 291 290 289 287 285 283 280 276 273 270 268 266 266 267 267 266 264 263 262 262 262 262 262 261 260 260 260 260 258
317 316 316 316 315 315 314 313 312 311 310 309 308 308 307 307 306 304 304 304 305 304 305 305 305 305 304 303 302 302 301 300 298 297 296 295 294 293 292 291 290 289 288 287 286 284 281 278 275 273 271 270 269 270 270 268 267 265 264 264 264 263 263 263 262 261 261 261 260
317 317 317 318 317 317 316 315 314 312 311 310 309 308 308 307 305 305 305 306 305 304 305 305 304 303 302 302 301 301 300 299 297 296 295 294 293 292 291 290 289 288 287 287 285 284 281 279 277 275 274 274 273 272 271 271 270 268 267 266 265 265 264 264 263 262 261 261 261
317 318 318 317 317 317 316 315 314 312 311 310 309 308 308 307 307 306 306 306 306 305 305 305 305 303 302 301 301 300 300 298 297 295 294 293 292 291 290 289 288 287 286 286 284 283 281 280 278 277 277 277 276 274 273 273 272 271 270 269 268 266 266 265 265 264 263 263 262
317 317 316 316 316 315 314 313 312 310 309 309 308 308 308 307 307 307 307 306 305 305 306 306 305 304 302 301 301 300 299 298 297 295 294 293 292 291 290 289 288 287 286 285 284 283 282 281 280 279 279 279 278 277 276 275 274 272 271 271 270 269 268 268 267 267 266 265 264
316 315 314 314 314 313 312 311 309 309 308 307 307 307 307 307 307 307 306 306 306 306 306 306 305 304 303 302 301 300 299 298 297 296 294 293 292 291 290 289 288 287 286 286 285 284 283 282 282 281 281 280 280 279 278 277 275 274 272 271 271 270 270 270 270 269 268 266 266
314 314 313 313 312 311 310 309 308 307 306 306 306 306 307 307 307 307 307 306 306 306 306 305 304 304 304 303 302 301 300 298 297 296 295 294 293 292 291 289 288 287 287 287 286 286 285 284 284 283 282 281 281 280 279 278 276 275 274 273 272 272 271 271 271 270 269 268 267
313 313 313 312 311 310 309 308 308 307 306 305 306 306 306 306 306 306 306 306 306 306 305 305 304 304 304 303 302 301 300 298 297 296 295 294 293 292 291 290 288 288 287 287 287 287 287 287 287 286 284 283 282 281 280 279 278 276 275 274 273 273 272 272 272 271 270 269 268
312 312 312 311 310 309 309 308 307 307 306 306 306 306 305 305 306 306 306 306 306 305 305 304 304 303 302 302 301 300 298 297 296 295 294 293 292 291 290 289 289 288 288 287 287 288 288 289 289 288 286 284 283 281 281 280 279 278 277 276 275 274 273 273 273 272 272 270 269
311 312 311 310 310 309 308 308 307 307 306 306 306 305 305 305 305 306 306 306 305 305 304 304 303 302 301 300 299 298 297 296 295 294 293 292 292 291 290 289 289 288 288 287 287 288 288 289 289 288 286 284 282 281 280 280 279 278 278 277 276 275 275 275 274 273 272 270 269
311 311 310 309 309 308 308 307 307 306 306 306 305 305 305 305 306 305 305 305 305 304 304 303 302 301 301 300 299 298 297 296 295 294 293 292 291 290 290 289 289 289 288 288 288 288 288 288 288 287 285 283 282 281 281 280 279 279 278 278 277 277 277 276 276 274 273 270 269
310 309 309 308 308 307 307 306 306 305 305 304 304 304 305 305 305 305 304 304 304 304 303 302 301 301 300 300 299 299 298 296 295 294 293 292 291 290 290 290 290 290 289 289 289 289 289 288 288 286 285 284 283 283 282 282 281 280 279 279 278 277 277 278 277 275 272 270 268
309 309 308 307 307 306 306 305 304 304 304 303 304 304 304 304 304 304 304 304 304 303 302 301 301 300 300 299 299 298 298 296 295 293 292 292 292 291 291 291 291 290 290 290 290 290 290 289 289 288 287 286 286 285 284 283 282 281 280 279 278 277 277 277 276 275 274 272 269
309 308 307 306 306 305 304 304 304 303 303 303 303 303 304 304 303 304 304 303 303 302 302 301 300 300 299 299 298 297 297 296 295 293 293 292 292 292 292 292 291 290 290 290 290 290 291 291 290 290 289 288 287 287 286 284 282 280 279 279 278 277 276 275 274 273 273 272 272
308 308 307 305 304 304 303 303 303 302 302 302 302 303 303 303 303 304 303 303 302 302 301 301 300 300 299 298 297 296 296 295 295 294 294 294 294 294 294 293 292 291 290 290 290 290 290 291 291 290 289 288 287 286 285 284 282 280 279 279 279 279 279 279 277 275 274 273 273
308 307 305 304 303 303 302 302 301 301 301 301 302 302 303 303 303 304 303 303 303 302 302 301 301 300 299 298 297 296 295 295 295 295 296 296 295 295 295 294 293 292 291 290 290 290 289 289 289 289 289 288 288 287 286 285 284 283 282 282 281 282 283 283 281 278 276 275 272
307 306 304 303 302 301 301 300 300 300 300 301 302 303 303 303 303 303 303 303 303 303 303 302 301 301 300 298 297 296 296 295 296 296 296 296 296 296 295 294 293 292 291 291 291 291 290 290 289 289 289 289 289 289 288 287 287 286 285 283 282 282 283 281 280 278 277 277 276
307 305 303 302 301 300 299 300 300 300 301 302 302 302 303 303 303 303 303 303 303 303 303 302 302 301 300 299 298 297 296 296 297 296 296 296 296 296 295 295 293 292 292 292 293 293 292 292 291 291 291 290 290 290 289 288 288 287 285 283 283 283 281 279 278 278 278 278 278
307 304 302 302 300 299 299 300 301 301 301 302 302 303 303 303 303 303 303 303 303 304 304 303 303 302 301 300 299 298 297 297 297 297 296 295 295 295 295 295 294 294 293 294 294 294 294 294 293 293 292 292 291 290 289 288 287 286 285 283 282 281 281 281 281 281 281 280 278
306 304 301 300 299 300 300 301 301 302 302 303 303 303 303 303 303 303 303 303 304 304 304 303 303 303 301 300 299 298 298 297 297 297 296 296 295 295 295 295 295 295 295 295 296 295 295 294 294 293 293 293 291 290 289 288 286 286 285 283 280 280 282 282 282 281 280 278 275
306 303 300 300 300 300 301 301 302 302 303 303 303 303 303 303 303 303 303 304 304 303 303 302 302 300 299 298 298 298 298 298 297 297 297 296 296 296 296 296 296 296 296 296 296 295 295 294 294 294 294 293 292 291 289 288 286 285 284 283 281 280 281 281 279 278 276 275 274
305 302 300 300 300 300 301 302 303 303 304 303 303 303 303 303 303 303 303 304 303 302 302 301 300 299 298 298 298 298 298 298 298 298 297 297 296 296 297 297 297 296 296 296 296 295 295 295 295 295 295 294 293 292 290 288 286 285 283 282 282 282 281 280 279 278 278 278 279
303 301 301 300 300 301 302 303 303 304 304 303 303 303 302 302 302 302 303 303 302 302 302 302 301 300 300 300 299 298 298 298 298 298 298 298 297 297 297 298 297 297 296 296 296 296 296 296 296 295 295 295 294 293 291 289 288 287 286 286 287 288 288 287 287 287 288 288 288
303 302 301 300 300 301 302 303 304 304 304 303 303 303 302 302 303 303 303 302 302 302 302 301 301 301 300 300 300 299 299 299 298 298 298 299 298 298 298 298 298 297 297 297 297 297 297 297 297 297 296 296 295 294 293 292 292 292 292 293 293 293 293 292 291 291 290 290 288
304 302 301 301 301 302 303 304 305 305 304 304 303 303 302 303 303 303 303 303 303 302 301 300 300 299 299 299 299 299 299 300 299 299 300 300 299 299 299 298 298 297 297 298 298 298 298 298 298 298 298 298 297 296 296 295 295 294 294 293 293 291 289 288 287 286 285 284 282
304 302 302 302 302 303 304 305 305 305 304 304 303 303 303 303 303 303 303 303 303 302 301 300 299 299 299 299 299 299 299 300 300 300 300 300 300 299 299 298 298 298 298 299 299 299 299 300 300 300 299 299 299 298 297 296 295 294 292 291 289 287 285 283 282 282 281 280 279
303 302 302 303 303 304 305 305 305 305 304 303 303 303 303 303 303 303 303 304 303 302 301 300 300 300 300 300 300 300 300 300 301 301 301 301 300 300 299 299 299 299 299 300 300 300 300 300 300 300 300 300 300 299 297 296 294 292 290 289 287 286 284 282 280 279 279 279 278
303 303 303 303 304 304 304 305 304 304 303 303 303 303 303 303 303 303 304 304 304 303 302 302 301 301 301 301 301 301 300 300 301 301 301 301 301 300 300 300 300 300 300 301 301 301 301 300 300 300 300 300 300 299 297 295 293 291 289 288 287 286 284 283 281 279 278 277 278
303 303 303 303 303 303 303 303 303 303 302 302 303 303 303 303 303 304 304 304 304 303 302 302 302 302 302 302 301 301 300 301 301 301 301 301 301 301 301 301 300 300 301 301 301 301 300 300 300 299 300 300 299 298 296 294 292 291 290 288 287 285 284 283 282 280 278 278 279
304 303 303 302 302 302 302 302 302 302 302 302 302 303 303 303 303 304 304 303 303 302 302 302 302 302 302 302 302 302 302 301 301 301 301 301 301 301 301 301 300 300 301 301 301 301 300 299 299 299 299 300 299 297 295 293 292 291 290 288 286 284 283 282 281 280 281 282 283
303 303 302 302 301 301 301 301 301 301 301 302 302 303 303 303 303 303 303 303 303 302 302 301 301 302 302 303 303 303 302 302 302 302 301 301 302 301 301 300 300 300 300 301 301 300 299 299 299 299 300 300 299 297 295 293 292 291 289 287 284 283 283 284 285 286 286 286 286
302 302 302 301 300 300 300 301 301 301 301 301 301 302 303 303 303 303 303 304 303 303 302 301 301 302 303 304 304 303 302 302 302 302 302 302 302 302 301 300 300 300 300 300 300 299 299 299 299 300 300 300 299 298 296 294 292 290 289 287 285 285 287 291 292 291 289 288 287